Location: Czu?�w
(50.1404°N, 18.9919°E)
Time: 11:10:58
(UTC+00:00)

Cosmos 1300 - Pass Details

Date: 27 October 2020
Orbit: 511 x 513 km, 82.5° (Epoch: 24 November)

Event Time Altitude Azimuth Distance (km) Brightness Sun altitude
Rises 16:02:29 0° 167° (SSE) 2,618 6.3 -6.0°
Reaches altitude 10° 16:04:43 10° 158° (SSE) 1,737 5.3 -6.4°
Maximum altitude 16:08:12 35° 92° (E) 852 3.3 -6.9°
Drops below altitude 10° 16:11:42 10° 26° (NNE) 1,751 5.0 -7.5°
Sets 16:13:58 0° 18° (NNE) 2,644 6.0 -7.8°
